• In Belarus
  • List of Countries
  • For 7 days
  • Water Temperature
  • Satellite Maps
  • Weather Map
  • Weather Widgets
  • user-avatar
    Login

    Hourly Weather Mokhotlong

    Today, 25 May, Saturday

    Time Temperature Precipitation Wind Pressure Humidity
    00:00 +7°C° 0 mm 1 mps 588 mmHg 41%
    01:00 +7°C° 0 mm 1 mps 588 mmHg 41%
    02:00 +6°C° 0 mm 2 mps 588 mmHg 42%
    03:00 +5°C° 0 mm 2 mps 587 mmHg 46%
    04:00 +5°C° 0 mm 2 mps 587 mmHg 50%
    05:00 +5°C° 0 mm 2 mps 587 mmHg 54%
    06:00 +6°C° 0 mm 2 mps 588 mmHg 53%
    07:00 +7°C° 0 mm 2 mps 589 mmHg 53%
    08:00 +8°C° 0 mm 2 mps 589 mmHg 52%
    09:00 +10°C° 0 mm 2 mps 590 mmHg 47%
    10:00 +13°C° 0 mm 2 mps 590 mmHg 42%
    11:00 +15°C° 0 mm 2 mps 591 mmHg 38%
    12:00 +15°C° 0 mm 2 mps 590 mmHg 36%
    13:00 +15°C° 0 mm 2 mps 590 mmHg 34%
    14:00 +16°C° 0 mm 1 mps 590 mmHg 32%
    15:00 +15°C° 0 mm 1 mps 589 mmHg 37%
    16:00 +14°C° 0 mm 1 mps 589 mmHg 42%
    17:00 +12°C° 0 mm 0 mps 589 mmHg 47%
    18:00 +10°C° 0 mm 0 mps 588 mmHg 50%
    19:00 +9°C° 0 mm 0 mps 588 mmHg 52%
    20:00 +8°C° 0 mm 0 mps 588 mmHg 55%
    21:00 +8°C° 0 mm 1 mps 587 mmHg 55%
    22:00 +8°C° 0 mm 1 mps 587 mmHg 55%
    23:00 +8°C° 0 mm 1 mps 587 mmHg 55%

    Tomorrow, 26 May, Sunday

    Time Temperature Precipitation Wind Pressure Humidity
    00:00 +7°C° 0 mm 1 mps 587 mmHg 56%
    01:00 +7°C° 0 mm 1 mps 587 mmHg 56%
    02:00 +7°C° 0 mm 1 mps 586 mmHg 56%
    03:00 +6°C° 0 mm 1 mps 586 mmHg 57%
    04:00 +6°C° 0 mm 1 mps 586 mmHg 57%
    05:00 +6°C° 0 mm 1 mps 586 mmHg 58%
    06:00 +7°C° 0 mm 1 mps 587 mmHg 55%
    07:00 +8°C° 0 mm 1 mps 588 mmHg 53%
    08:00 +10°C° 0 mm 1 mps 588 mmHg 50%
    09:00 +11°C° 0 mm 1 mps 589 mmHg 45%
    10:00 +13°C° 0 mm 1 mps 589 mmHg 40%
    11:00 +15°C° 0 mm 1 mps 590 mmHg 35%
    12:00 +15°C° 0 mm 1 mps 589 mmHg 33%
    13:00 +15°C° 0 mm 1 mps 589 mmHg 32%
    14:00 +16°C° 0 mm 1 mps 589 mmHg 30%
    15:00 +15°C° 0 mm 1 mps 588 mmHg 36%
    16:00 +13°C° 0 mm 0 mps 588 mmHg 41%
    17:00 +11°C° 0 mm 0 mps 587 mmHg 47%
    18:00 +10°C° 0 mm 0 mps 587 mmHg 48%
    19:00 +10°C° 0 mm 1 mps 587 mmHg 49%
    20:00 +9°C° 0 mm 1 mps 586 mmHg 49%
    21:00 +9°C° 0 mm 1 mps 586 mmHg 50%
    22:00 +8°C° 0 mm 1 mps 586 mmHg 50%
    23:00 +8°C° 0 mm 1 mps 586 mmHg 50%

    Day after tomorrow, 27 May, Monday

    Time Temperature Precipitation Wind Pressure Humidity
    00:00 +7°C° 0 mm 1 mps 586 mmHg 51%
    01:00 +7°C° 0 mm 1 mps 585 mmHg 53%
    02:00 +6°C° 0 mm 1 mps 585 mmHg 54%
    03:00 +6°C° 0 mm 1 mps 585 mmHg 54%
    04:00 +6°C° 0 mm 1 mps 585 mmHg 53%
    05:00 +6°C° 0 mm 1 mps 584 mmHg 53%
    06:00 +7°C° 0 mm 1 mps 585 mmHg 50%
    07:00 +8°C° 0 mm 1 mps 586 mmHg 47%
    08:00 +10°C° 0 mm 1 mps 587 mmHg 45%
    09:00 +11°C° 0 mm 1 mps 588 mmHg 40%
    10:00 +13°C° 0 mm 1 mps 588 mmHg 36%
    11:00 +14°C° 0 mm 1 mps 589 mmHg 32%
    12:00 +15°C° 0 mm 1 mps 588 mmHg 31%
    13:00 +15°C° 0 mm 1 mps 588 mmHg 31%
    14:00 +15°C° 0 mm 1 mps 588 mmHg 31%
    15:00 +15°C° 0 mm 1 mps 587 mmHg 35%
    16:00 +14°C° 0 mm 1 mps 587 mmHg 39%
    17:00 +13°C° 0 mm 1 mps 587 mmHg 43%
    18:00 +12°C° 0 mm 1 mps 587 mmHg 46%
    19:00 +11°C° 0 mm 1 mps 586 mmHg 49%
    20:00 +10°C° 0 mm 1 mps 586 mmHg 52%
    21:00 +9°C° 0 mm 1 mps 586 mmHg 52%
    22:00 +9°C° 0 mm 1 mps 586 mmHg 52%
    23:00 +8°C° 0 mm 1 mps 586 mmHg 53%

    28 May, Tuesday

    Time Temperature Precipitation Wind Pressure Humidity
    00:00 +8°C° 0 mm 1 mps 585 mmHg 52%
    01:00 +7°C° 0 mm 1 mps 585 mmHg 51%
    02:00 +7°C° 0 mm 1 mps 585 mmHg 51%
    03:00 +7°C° 0 mm 1 mps 585 mmHg 50%
    04:00 +7°C° 0 mm 1 mps 585 mmHg 50%
    05:00 +6°C° 0 mm 1 mps 585 mmHg 49%
    06:00 +7°C° 0 mm 1 mps 585 mmHg 47%
    07:00 +8°C° 0 mm 1 mps 586 mmHg 44%
    08:00 +9°C° 0 mm 1 mps 587 mmHg 41%
    09:00 +10°C° 0 mm 2 mps 588 mmHg 39%
    10:00 +12°C° 0 mm 2 mps 588 mmHg 37%
    11:00 +13°C° 0 mm 2 mps 588 mmHg 34%
    12:00 +13°C° 0.1 mm 2 mps 588 mmHg 37%
    13:00 +13°C° 0.1 mm 2 mps 587 mmHg 40%
    14:00 +13°C° 0.1 mm 2 mps 586 mmHg 42%
    15:00 +12°C° 0 mm 2 mps 586 mmHg 46%
    16:00 +10°C° 0 mm 2 mps 586 mmHg 50%
    17:00 +11°C° 0 mm 1 mps 586 mmHg 54%
    18:00 +10°C° 0 mm 1 mps 585 mmHg 57%
    19:00 +8°C° 0 mm 1 mps 585 mmHg 59%
    20:00 +7°C° 0 mm 1 mps 585 mmHg 62%
    21:00 +7°C° 0 mm 1 mps 585 mmHg 63%
    22:00 +6°C° 0 mm 1 mps 585 mmHg 63%
    23:00 +6°C° 0 mm 1 mps 585 mmHg 63%

    29 May, Wednesday

    Time Temperature Precipitation Wind Pressure Humidity
    00:00 +5°C° 0 mm 1 mps 584 mmHg 63%
    01:00 +5°C° 0 mm 1 mps 584 mmHg 62%
    02:00 +5°C° 0 mm 1 mps 584 mmHg 61%
    03:00 +4°C° 0 mm 1 mps 584 mmHg 60%
    04:00 +4°C° 0 mm 1 mps 583 mmHg 60%
    05:00 +4°C° 0 mm 1 mps 583 mmHg 59%
    06:00 +5°C° 0 mm 1 mps 584 mmHg 54%
    07:00 +7°C° 0 mm 1 mps 585 mmHg 50%
    08:00 +8°C° 0 mm 1 mps 586 mmHg 45%
    09:00 +9°C° 0 mm 1 mps 587 mmHg 41%
    10:00 +11°C° 0 mm 1 mps 587 mmHg 38%
    11:00 +12°C° 0 mm 1 mps 587 mmHg 34%
    12:00 +13°C° 0 mm 1 mps 587 mmHg 33%
    13:00 +13°C° 0 mm 1 mps 587 mmHg 33%
    14:00 +13°C° 0 mm 1 mps 586 mmHg 32%
    15:00 +12°C° 0 mm 1 mps 586 mmHg 38%
    16:00 +10°C° 0 mm 0 mps 585 mmHg 45%
    17:00 +9°C° 0 mm 0 mps 585 mmHg 51%
    18:00 +8°C° 0 mm 0 mps 585 mmHg 53%
    19:00 +8°C° 0 mm 1 mps 584 mmHg 55%
    20:00 +7°C° 0 mm 1 mps 584 mmHg 57%
    21:00 +7°C° 0 mm 1 mps 584 mmHg 57%
    22:00 +6°C° 0 mm 1 mps 584 mmHg 57%
    23:00 +6°C° 0 mm 1 mps 583 mmHg 57%

    30 May, Thursday

    Time Temperature Precipitation Wind Pressure Humidity
    00:00 +6°C° 0 mm 1 mps 583 mmHg 55%
    01:00 +5°C° 0 mm 1 mps 583 mmHg 53%
    02:00 +4°C° 0 mm 2 mps 582 mmHg 52%
    03:00 +4°C° 0 mm 2 mps 582 mmHg 51%
    04:00 +4°C° 0 mm 2 mps 582 mmHg 51%
    05:00 +3°C° 0 mm 2 mps 582 mmHg 51%
    06:00 +4°C° 0 mm 2 mps 583 mmHg 51%
    07:00 +5°C° 0 mm 2 mps 583 mmHg 51%
    08:00 +6°C° 0 mm 2 mps 584 mmHg 51%
    09:00 +8°C° 0 mm 2 mps 585 mmHg 45%
    10:00 +10°C° 0 mm 2 mps 585 mmHg 39%
    11:00 +12°C° 0 mm 2 mps 586 mmHg 33%
    12:00 +12°C° 0 mm 2 mps 585 mmHg 33%
    13:00 +12°C° 0 mm 2 mps 584 mmHg 33%
    14:00 +12°C° 0 mm 3 mps 584 mmHg 33%
    15:00 +10°C° 0.1 mm 2 mps 583 mmHg 40%
    16:00 +9°C° 0.1 mm 2 mps 583 mmHg 46%
    17:00 +8°C° 0.1 mm 2 mps 582 mmHg 52%
    18:00 +7°C° 0 mm 2 mps 582 mmHg 58%
    19:00 +6°C° 0 mm 2 mps 582 mmHg 64%
    20:00 +4°C° 0 mm 2 mps 581 mmHg 70%
    21:00 +4°C° 0 mm 2 mps 581 mmHg 70%
    22:00 +4°C° 0 mm 2 mps 581 mmHg 71%
    23:00 +4°C° 0 mm 2 mps 581 mmHg 71%
    Show more